sat.trackr.live / text

‹ back to catalog

STARLINK-3447

NORAD 51736 · 2022-016Y

PAYLOAD ACTIVE UNKNOWN

§ Identity

Operator
Country
US
Launch date
2022-02-21
Launch site
AFETR
Launch vehicle
Mass (kg)
RCS (m²)

Purposes: comms

External: N2YO · Heavens-Above · Gunter

§ Orbital elements

Epoch: 2026-09-20T02:06:34.394112Z

Period
94.01 min
Inclination
53.1591°
Eccentricity
0.0001215
Mean motion
15.31697289 rev/d
Perigee alt
469.9 km
Apogee alt
471.6 km
Semi-major
6,848.9 km
B*
1.2026e-5
RAAN
152.7608°
Arg perigee
87.3759°
Mean anomaly
272.7381°
Rev number
25,309

§ Raw data

STARLINK-34471 51736U 22016Y   26263.08789808  .00000008  00000+0  12026-4 0  99922 51736  53.1591 152.7608 0001215  87.3759 272.7381 15.31697289253095

JSON: /api/v1/satellites/51736 · /tle

For live sub-satellite position, see the globe view (requires WebGL).

§ Visibility from observer

Set your observer location to see the next 7 days of passes ≥ 10°. The values pass through the URL so the page stays shareable.

No JS? Fill the form by hand. The geolocation button needs JavaScript.